�������l�o���
Date,Time,MP-1(��Sv/h),MP-2(��Sv/h),MP-3(��Sv/h),MP-4(��Sv/h),MP-5(��Sv/h),MP-6(��Sv/h),MP-7(��Sv/h),MP-8(��Sv/h),����,����(m/s),���J
2016/11/09,00:00,1.133,1.953,1.319,2.198,1.531,0.593,1.076,0.991,�k��,6.7,��
2016/11/09,00:10,1.133,1.951,1.322,2.200,1.532,0.592,1.077,0.992,�k�k��,6.4,��
2016/11/09,00:20,1.134,1.950,1.320,2.198,1.532,0.593,1.076,0.992,�k�k��,6.7,��
2016/11/09,00:30,1.133,1.953,1.319,2.199,1.533,0.592,1.077,0.991,�k�k��,6.7,��
2016/11/09,00:40,1.132,1.954,1.319,2.195,1.532,0.591,1.077,0.991,�k�k��,7.1,��
2016/11/09,00:50,1.131,1.952,1.319,2.194,1.530,0.591,1.077,0.991,�k�k��,6.3,��
2016/11/09,01:00,1.131,1.947,1.319,2.198,1.528,0.591,1.074,0.991,�k�k��,5.3,��
2016/11/09,01:10,1.132,1.949,1.318,2.194,1.532,0.590,1.078,0.990,�k��,6.6,��
2016/11/09,01:20,1.132,1.954,1.318,2.196,1.531,0.589,1.075,0.991,�k�k��,6.9,��
2016/11/09,01:30,1.128,1.953,1.319,2.194,1.529,0.591,1.076,0.991,�k�k��,6.9,��
2016/11/09,01:40,1.130,1.951,1.319,2.193,1.531,0.589,1.076,0.989,�k�k��,6.0,��
2016/11/09,01:50,1.131,1.951,1.317,2.194,1.530,0.590,1.073,0.991,�k��,7.1,��
2016/11/09,02:00,1.130,1.950,1.318,2.195,1.529,0.589,1.075,0.990,�k�k��,7.2,��
2016/11/09,02:10,1.130,1.951,1.318,2.196,1.529,0.588,1.074,0.990,�k�k��,6.6,��
2016/11/09,02:20,1.128,1.950,1.320,2.195,1.531,0.588,1.073,0.989,�k�k��,5.5,��
2016/11/09,02:30,1.130,1.949,1.317,2.190,1.527,0.590,1.074,0.990,���k��,4.7,��
2016/11/09,02:40,1.129,1.951,1.317,2.195,1.529,0.587,1.075,0.990,�k��,6.3,��
2016/11/09,02:50,1.130,1.952,1.317,2.194,1.529,0.590,1.074,0.989,�k��,6.6,��
2016/11/09,03:00,1.128,1.949,1.316,2.195,1.526,0.588,1.075,0.990,���k��,8.6,��
2016/11/09,03:10,1.130,1.952,1.317,2.194,1.529,0.586,1.075,0.990,�k��,6.6,��
2016/11/09,03:20,1.129,1.951,1.318,2.195,1.532,0.587,1.076,0.990,���k��,6.6,��
2016/11/09,03:30,1.130,1.953,1.317,2.194,1.528,0.589,1.075,0.990,���k��,5.8,��
2016/11/09,03:40,1.130,1.953,1.318,2.196,1.530,0.589,1.074,0.992,���k��,5.2,��
2016/11/09,03:50,1.129,1.951,1.319,2.195,1.529,0.588,1.076,0.991,���k��,6.9,��
2016/11/09,04:00,1.130,1.954,1.320,2.196,1.530,0.588,1.076,0.991,���k��,8.8,��
2016/11/09,04:10,1.130,1.948,1.317,2.192,1.529,0.588,1.075,0.992,���k��,8.0,��
2016/11/09,04:20,1.130,1.952,1.320,2.195,1.531,0.587,1.074,0.990,�k��,11.9,��
2016/11/09,04:30,1.131,1.949,1.317,2.194,1.527,0.589,1.076,0.989,���k��,10.2,��
2016/11/09,04:40,1.128,1.954,1.316,2.195,1.530,0.587,1.074,0.992,�k��,6.3,��
2016/11/09,04:50,1.129,1.950,1.318,2.195,1.529,0.587,1.073,0.991,���k��,5.8,��
2016/11/09,05:00,1.128,1.951,1.316,2.195,1.533,0.591,1.073,0.989,��,3.6,��
2016/11/09,05:10,1.128,1.951,1.315,2.195,1.531,0.589,1.075,0.991,�k��,5.5,��
2016/11/09,05:20,1.128,1.952,1.317,2.199,1.531,0.587,1.075,0.990,���k��,6.9,��
2016/11/09,05:30,1.129,1.950,1.316,2.195,1.529,0.588,1.076,0.989,���k��,9.3,��
2016/11/09,05:40,1.127,1.950,1.317,2.195,1.526,0.586,1.074,0.991,�k��,8.0,��
2016/11/09,05:50,1.128,1.951,1.320,2.196,1.527,0.587,1.075,0.989,�k�k��,4.9,��
2016/11/09,06:00,1.131,1.953,1.320,2.196,1.531,0.587,1.075,0.990,�k��,5.8,��
2016/11/09,06:10,1.126,1.951,1.317,2.195,1.528,0.587,1.077,0.988,���k��,6.9,��
2016/11/09,06:20,1.128,1.952,1.309,2.196,1.530,0.587,1.078,0.989,�k��,8.0,��
2016/11/09,06:30,1.127,1.950,1.315,2.192,1.530,0.585,1.075,0.989,�k��,5.2,��
2016/11/09,06:40,1.129,1.951,1.316,2.194,1.528,0.586,1.075,0.990,���k��,5.8,��
2016/11/09,06:50,1.127,1.947,1.316,2.195,1.531,0.589,1.076,0.990,�k��,6.0,��
2016/11/09,07:00,1.127,1.947,1.316,2.194,1.528,0.588,1.076,0.989,�k��,6.9,��
2016/11/09,07:10,1.126,1.949,1.316,2.193,1.527,0.587,1.077,0.990,�k��,8.6,��
2016/11/09,07:20,1.127,1.950,1.315,2.193,1.529,0.586,1.075,0.990,�k��,5.2,��
2016/11/09,07:30,1.128,1.951,1.312,2.196,1.528,0.586,1.077,0.991,���k��,7.7,��
2016/11/09,07:40,1.126,1.950,1.308,2.196,1.527,0.586,1.076,0.989,���k��,7.8,��
2016/11/09,07:50,1.128,1.953,1.313,2.193,1.527,0.586,1.077,0.989,�k��,7.1,��
2016/11/09,08:00,1.126,1.948,1.314,2.196,1.527,0.587,1.076,0.989,�k��,4.7,��
2016/11/09,08:10,1.125,1.949,1.316,2.199,1.528,0.584,1.075,0.990,���k��,7.1,��
2016/11/09,08:20,1.128,1.948,1.313,2.196,1.530,0.585,1.075,0.991,���k��,5.8,��
2016/11/09,08:30,1.129,1.949,1.316,2.194,1.529,0.588,1.077,0.988,��,9.7,��
2016/11/09,08:40,1.126,1.950,1.315,2.197,1.530,0.587,1.076,0.990,���k��,12.4,��
2016/11/09,08:50,1.129,1.951,1.313,2.196,1.530,0.586,1.075,0.990,���k��,9.3,��
2016/11/09,09:00,1.130,1.950,1.317,2.197,1.527,0.586,1.076,0.992,���k��,10.2,��
2016/11/09,09:10,1.128,1.953,1.315,2.200,1.531,0.587,1.075,0.991,���k��,7.2,��
2016/11/09,09:20,1.126,1.947,1.317,2.199,1.526,0.587,1.076,0.990,��,8.2,��
2016/11/09,09:30,1.127,1.946,1.314,2.198,1.532,0.588,1.074,0.989,���k��,6.9,��
2016/11/09,09:40,1.128,1.946,1.314,2.200,1.531,0.588,1.072,0.990,�k��,7.7,��
2016/11/09,09:50,1.128,1.948,1.314,2.200,1.532,0.587,1.077,0.989,���k��,3.8,��
2016/11/09,10:00,1.130,1.946,1.313,2.198,1.532,0.588,1.074,0.989,���k��,10.2,��
2016/11/09,10:10,1.130,1.947,1.312,2.199,1.532,0.587,1.076,0.990,�k��,6.3,��
2016/11/09,10:20,1.128,1.944,1.312,2.200,1.532,0.589,1.075,0.991,���k��,5.3,��
2016/11/09,10:30,1.129,1.945,1.312,2.198,1.529,0.588,1.075,0.992,���k��,11.4,��
2016/11/09,10:40,1.128,1.942,1.315,2.199,1.529,0.586,1.076,0.990,�k��,12.3,��
2016/11/09,10:50,1.131,1.946,1.314,2.201,1.531,0.585,1.075,0.992,�k��,13.2,��
2016/11/09,11:00,1.129,1.949,1.308,2.201,1.536,0.587,1.077,0.993,���k��,14.4,��
2016/11/09,11:10,1.132,1.948,1.314,2.197,1.533,0.587,1.074,0.991,���k��,11.3,��
2016/11/09,11:20,1.130,1.947,1.314,2.200,1.536,0.582,1.076,0.992,��,7.4,��
2016/11/09,11:30,1.130,1.955,1.317,2.200,1.533,0.585,1.077,0.990,��,11.8,��
2016/11/09,11:40,1.132,1.954,1.316,2.203,1.532,0.583,1.074,0.990,��,7.7,��
2016/11/09,11:50,1.129,1.952,1.320,2.202,1.532,0.584,1.071,0.993,���k��,3.9,��
2016/11/09,12:00,1.133,1.950,1.320,2.203,1.531,0.585,1.072,0.992,���k��,6.7,��
2016/11/09,12:10,1.131,1.951,1.316,2.205,1.530,0.586,1.073,0.990,��,7.1,��
2016/11/09,12:20,1.131,1.953,1.321,2.202,1.533,0.584,1.070,0.993,���쐼,7.5,��
2016/11/09,12:30,1.132,1.952,1.319,2.204,1.533,0.585,1.072,0.991,��,9.1,��
2016/11/09,12:40,1.130,1.951,1.321,2.204,1.530,0.585,1.074,0.990,��,7.8,��
2016/11/09,12:50,1.128,1.951,1.318,2.199,1.531,0.585,1.073,0.989,��,9.4,��
2016/11/09,13:00,1.126,1.950,1.319,2.203,1.530,0.585,1.074,0.986,��,9.9,��
2016/11/09,13:10,1.126,1.947,1.318,2.200,1.529,0.584,1.073,0.987,��,6.6,��
2016/11/09,13:20,1.128,1.950,1.318,2.201,1.534,0.586,1.073,0.990,���k��,4.1,��
2016/11/09,13:30,1.127,1.950,1.318,2.203,1.536,0.587,1.074,0.990,���k��,6.7,��
2016/11/09,13:40,1.127,1.950,1.319,2.204,1.534,0.592,1.075,0.990,��,8.3,��
2016/11/09,13:50,1.128,1.947,1.319,2.203,1.537,0.588,1.073,0.988,�k�k��,4.6,��
2016/11/09,14:00,1.132,1.949,1.319,2.204,1.535,0.586,1.075,0.988,�k,6.9,��
2016/11/09,14:10,1.130,1.951,1.316,2.202,1.533,0.590,1.075,0.988,-,-,��
2016/11/09,14:20,1.131,1.954,1.319,2.205,1.535,0.588,1.073,0.988,-,-,��
2016/11/09,14:30,1.130,1.957,1.318,2.201,1.534,0.588,1.075,0.988,-,-,��
2016/11/09,14:40,1.132,1.956,1.319,2.199,1.536,0.586,1.072,0.989,-,-,��
2016/11/09,14:50,1.133,1.958,1.321,2.202,1.536,0.586,1.075,0.990,-,-,��
2016/11/09,15:00,1.131,1.955,1.319,2.203,1.533,0.586,1.077,0.988,-,-,��
2016/11/09,15:10,1.132,1.959,1.321,2.204,1.537,0.585,1.075,0.991,-,-,��
2016/11/09,15:20,1.131,1.954,1.318,2.203,1.533,0.585,1.076,0.991,-,-,��
2016/11/09,15:30,1.131,1.957,1.319,2.200,1.536,0.585,1.075,0.992,-,-,��
2016/11/09,15:40,1.130,1.955,1.318,2.203,1.534,0.587,1.075,0.991,-,-,��
2016/11/09,15:50,1.128,1.954,1.318,2.203,1.535,0.584,1.076,0.990,-,-,��
2016/11/09,16:00,1.128,1.954,1.320,2.203,1.534,0.585,1.074,0.990,-,-,��
2016/11/09,16:10,1.129,1.955,1.316,2.202,1.532,0.584,1.075,0.990,-,-,��
2016/11/09,16:20,1.130,1.953,1.318,2.200,1.532,0.585,1.074,0.990,�k,5.8,��
2016/11/09,16:30,1.130,1.956,1.316,2.200,1.535,0.585,1.073,0.992,�k,5.2,��
2016/11/09,16:40,1.129,1.957,1.317,2.199,1.533,0.584,1.076,0.991,�k�k��,4.7,��
2016/11/09,16:50,1.128,1.956,1.316,2.199,1.535,0.585,1.072,0.990,�k,4.7,��
2016/11/09,17:00,1.128,1.953,1.316,2.195,1.535,0.583,1.074,0.990,�k,3.5,��
2016/11/09,17:10,1.128,1.955,1.316,2.200,1.534,0.585,1.075,0.990,�k,3.0,��
2016/11/09,17:20,1.128,1.950,1.314,2.198,1.536,0.583,1.076,0.990,�k,3.0,��
2016/11/09,17:30,1.126,1.953,1.317,2.197,1.534,0.583,1.075,0.988,�k,4.9,��
2016/11/09,17:40,1.126,1.957,1.314,2.196,1.533,0.584,1.074,0.988,�k,5.0,��
2016/11/09,17:50,1.126,1.953,1.315,2.201,1.536,0.582,1.074,0.990,�k,5.1,��
2016/11/09,18:00,1.127,1.956,1.312,2.199,1.533,0.584,1.074,0.989,�k,3.8,��
2016/11/09,18:10,1.126,1.951,1.312,2.196,1.533,0.582,1.077,0.990,�k,4.0,��
2016/11/09,18:20,1.126,1.955,1.314,2.197,1.534,0.583,1.076,0.989,�k,4.5,��
2016/11/09,18:30,1.127,1.952,1.313,2.200,1.536,0.582,1.074,0.989,�k,6.0,��
2016/11/09,18:40,1.129,1.954,1.315,2.195,1.532,0.582,1.075,0.989,�k�k��,5.8,��
2016/11/09,18:50,1.127,1.952,1.311,2.195,1.536,0.584,1.075,0.989,�k�k��,4.5,��
2016/11/09,19:00,1.128,1.955,1.313,2.197,1.532,0.584,1.075,0.988,�k�k��,4.3,��
2016/11/09,19:10,1.124,1.951,1.314,2.197,1.534,0.582,1.074,0.988,�k�k��,3.9,��
2016/11/09,19:20,1.129,1.955,1.313,2.195,1.533,0.582,1.076,0.987,�k�k��,4.7,��
2016/11/09,19:30,1.127,1.954,1.314,2.195,1.532,0.583,1.074,0.989,�k�k��,5.4,��
2016/11/09,19:40,1.126,1.952,1.314,2.198,1.533,0.583,1.072,0.986,�k�k��,5.1,��
2016/11/09,19:50,1.125,1.952,1.313,2.197,1.532,0.582,1.075,0.987,�k�k��,5.7,��
2016/11/09,20:00,1.126,1.951,1.311,2.194,1.532,0.581,1.073,0.989,�k��,5.9,��
2016/11/09,20:10,1.125,1.949,1.313,2.198,1.533,0.581,1.073,0.986,�k��,6.5,��
2016/11/09,20:20,1.124,1.953,1.310,2.196,1.529,0.583,1.071,0.987,�k��,8.4,��
2016/11/09,20:30,1.126,1.953,1.312,2.193,1.533,0.580,1.073,0.987,�k��,6.3,��
2016/11/09,20:40,1.125,1.956,1.314,2.198,1.534,0.581,1.073,0.985,�k��,6.4,��
2016/11/09,20:50,1.127,1.950,1.313,2.197,1.534,0.581,1.071,0.986,�k��,5.3,��
2016/11/09,21:00,1.126,1.955,1.314,2.196,1.531,0.582,1.073,0.988,�k��,5.7,��
2016/11/09,21:10,1.126,1.952,1.312,2.196,1.532,0.582,1.072,0.988,�k��,5.6,��
2016/11/09,21:20,1.126,1.952,1.314,2.194,1.532,0.583,1.073,0.986,�k��,6.1,��
2016/11/09,21:30,1.124,1.952,1.315,2.196,1.532,0.581,1.073,0.985,�k��,6.0,��
2016/11/09,21:40,1.127,1.953,1.312,2.197,1.534,0.582,1.072,0.987,���k��,4.2,��
2016/11/09,21:50,1.127,1.951,1.312,2.195,1.535,0.580,1.074,0.987,���k��,2.6,��
2016/11/09,22:00,1.126,1.951,1.313,2.194,1.533,0.583,1.072,0.987,���쐼,2.0,��
2016/11/09,22:10,1.124,1.952,1.311,2.196,1.531,0.582,1.074,0.990,���쐼,1.7,��
2016/11/09,22:20,1.124,1.954,1.313,2.194,1.533,0.579,1.073,0.987,��,1.5,��
2016/11/09,22:30,1.123,1.950,1.312,2.194,1.532,0.582,1.075,0.988,�k��,1.5,��
2016/11/09,22:40,1.125,1.949,1.311,2.197,1.532,0.581,1.076,0.987,���쐼,1.1,��
2016/11/09,22:50,1.125,1.950,1.311,2.194,1.530,0.582,1.071,0.986,��,0.6,��
2016/11/09,23:00,1.125,1.948,1.311,2.192,1.531,0.581,1.073,0.989,�k�k��,1.1,��
2016/11/09,23:10,1.125,1.948,1.310,2.193,1.530,0.581,1.073,0.988,�k��,0.6,��
2016/11/09,23:20,1.125,1.947,1.308,2.194,1.529,0.582,1.074,0.986,�k�k��,0.9,��
2016/11/09,23:30,1.126,1.949,1.314,2.192,1.531,0.581,1.072,0.986,�k,2.0,��
2016/11/09,23:40,1.124,1.951,1.309,2.194,1.531,0.581,1.072,0.985,�k�k��,2.9,��
2016/11/09,23:50,1.124,1.948,1.310,2.194,1.527,0.582,1.072,0.987,�k�k��,4.3,��
